Regional Weather Roundup
Issued by NWS Jackson, KY

Home | Current Version | Previous Version | Text Only | Print | Product List | Glossary On
Versions: 1 2 3 4 5 6 7 8 9 10 11 12 13 14 15 16 17 18 19 20 21 22 23 24 25 26 27
000
ASUS43 KJKL 200010
RWRJKL

EAST KENTUCKY HOURLY WEATHER ROUNDUP
NATIONAL WEATHER SERVICE JACKSON KY
800 PM EDT THU OCT 19 2017

NOTE: "FAIR" INDICATES FEW OR NO CLOUDS BELOW 12,000 FEET WITH
NO SIGNIFICANT WEATHER AND/OR OBSTRUCTIONS TO VISIBILITY.

* THESE REPORTS ARE NOT UNDER NWS QUALITY CONTROL AND MAY NOT
  REPORT WEATHER SUCH AS PRECIPITATION AND FOG.

KYZ079-080-083-085-087-088-110-112-115-119-120-200100
...EASTERN KENTUCKY...

CITY           SKY/WX    TMP DP  RH WIND       PRES   REMARKS
JACKSON        CLEAR     62  45  53 CALM      30.26R
6HR MIN TEMP:  62; 6HR MAX TEMP:  71;

LONDON         CLEAR     58  49  72 CALM      30.26R
6HR MIN TEMP:  58; 6HR MAX TEMP:  71;

SOMERSET*      CLEAR     57  48  72 CALM      30.27R
MONTICELLO*    CLEAR     53  48  83 W8        30.28R
6HR MIN TEMP:  51; 6HR MAX TEMP:  72;

WILLIAMSBURG*  CLEAR     59  50  72 CALM      30.27R
MIDDLESBORO*   CLEAR     58  49  72 CALM      30.29R
6HR MIN TEMP:  58; 6HR MAX TEMP:  72;

HARLAN APT*    CLEAR     57  46  67 CALM      30.28R
PIKE CO APT*     N/A     64  44  47 NW3       30.26R
BIG SANDY APT* CLEAR     61  47  59 CALM      30.25S
6HR MIN TEMP:  61; 6HR MAX TEMP:  71;

MOREHEAD APT*  CLEAR     63  46  55 SW6       30.26R
$$

KYZ035-036-041-042-044-050-067-078-099-200100
...CENTRAL KENTUCKY...

CITY           SKY/WX    TMP DP  RH WIND       PRES   REMARKS
MT STERLING*   CLEAR     57  48  72 W3        30.26R
FLEMING/MASON* CLEAR     60  49  65 SW6       30.25R
DANVILLE*      CLEAR     55  48  76 CALM      30.26R
LEXINGTON      CLEAR     63  49  60 S5        30.24S
6HR MIN TEMP:  63; 6HR MAX TEMP:  72;

FRANKFORT      CLEAR     58  50  75 CALM      30.23R
6HR MIN TEMP:  58; 6HR MAX TEMP:  73;

LOUISVILLE     PTCLDY    67  52  58 SW5       30.22R
6HR MIN TEMP:  67; 6HR MAX TEMP:  75;

LEBANON*         N/A     63  48  59 CALM      30.25R
GLASGOW*       CLEAR     58  50  76 CALM      30.24R
BOWLING GREEN  CLEAR     63  51  65 SE3       30.23R
6HR MIN TEMP:  63; 6HR MAX TEMP:  75;

$$

KYZ091>093-OHZ055-061-077-WVZ005-015-034-035-042-200100
...SOUTHERN OHIO/WEST VIRGINIA...

CITY           SKY/WX    TMP DP  RH WIND       PRES   REMARKS
COVINGTON      PTCLDY    61  53  75 S5        30.21R
COLUMBUS       PTCLDY    67  50  54 SW7       30.18R
DAYTON         CLOUDY    62  51  67 SW7       30.21R
WILMINGTON     CLEAR     59  51  75 SW5       30.21R
HUNTINGTON     CLEAR     64  46  52 S3        30.23R
CHARLESTON     CLEAR     60  46  59 CALM      30.23R
PINEVILLE*     CLEAR     52  45  78 MISG      30.31R
BECKLEY        CLEAR     56  39  53 CALM      30.27R
BLUEFIELD      CLEAR     57  37  47 W3        30.29R
LOGAN CO APT*    N/A     63  45  51 CALM      30.25R
$$

VAZ002-007-008-TNZ017-027-036-066-071-200100
...SOUTHWEST VIRGINIA/EAST TENNESSEE...

CITY           SKY/WX    TMP DP  RH WIND       PRES   REMARKS
WISE*          CLEAR     55  45  67 SW5       30.31R
JONESVILLE*      N/A     54  46  76 CALM      30.30R
ABINGDON*      CLEAR     57  43  59 CALM      30.30R
BRISTOL        CLEAR     55  47  74 CALM      30.28R
MORRISTOWN*    CLEAR     59  46  63 CALM      30.27R
SEVIERVILLE*   CLEAR     57  45  62 CALM      30.26R
KNOXVILLE      CLEAR     64  46  52 CALM      30.25R
LAFOLLETTE*    CLEAR     55  54  94 CALM      30.31R
OAK RIDGE      CLEAR     57  52  83 CALM      30.28R
CROSSVILLE     CLEAR     54  48  80 CALM      30.28R
NASHVILLE      CLEAR     67  45  45 S3        30.24R
$$

...KEY TO REMARKS...
VSB - VISIBILITY IN MILES
WCI - WIND CHILL INDEX
HX  - HEAT INDEX

$$




USA.gov is the U.S. government's official web portal to all federal, state and local government web resources and services.